Location: Unspecified
(0.0000°N, 0.0000°E)
Time: 15:16:35
(UTC+00:00)

STARLINK-35347 - Pass Details

Date: 22 February 2026
Orbit: 474 x 476 km, 53.2° (Epoch: 6 March)

Event Time Altitude Azimuth Distance (km) Brightness Sun altitude
Rises 20:07:05 0° 249° (WSW) 2,516 7.2 -27.9°
Reaches altitude 10° 20:10:25 10° 281° (W) 1,633 5.8 -28.8°
Maximum altitude 20:11:52 12° 304° (NW) 1,510 5.3 -29.1°
Enters shadow 20:12:22 12° 313° (NW) 1,524 5.2 -29.2°
